Tracking 19827 objects as of 22-Aug-2019
HD Live streaming from Space Station
objects crossing your sky now

FENGYUN 1C DEB

Track FENGYUN 1C DEB now!
10-day predictions


NORAD ID: 30371
Int'l Code: 1999-025ACJ
Perigee: 825.8 km
Apogee: 837.5 km
Inclination: 98.8 °
Period: 101.4 minutes
Semi major axis: 7202 km
RCS: 0.046 m2 (small)
Launch date: May 10, 1999
Source: People's Republic of China (PRC)
Launch site: Taiyaun Space Center, China (TSC)

Note: This is SATELLITE DEBRIS
aabbcc
Your satellite tracking list
Your tracking list is empty




NASA's NSSDC Master Catalog

Two Line Element Set (TLE):
1 30371U 99025ACJ 19233.07236802  .00000299  00000-0  16079-3 0  9991
2 30371  98.7883 275.4124 0008120 172.5249 217.4979 14.20241655651208
Source of the keplerian elements: AFSPC